• In Hungary
  • List of Countries
  • For 7 days
  • Water Temperature
  • Satellite Maps
  • Weather Map
  • News
  • Weather Widgets
  • user-avatar
    Login

    Hourly Weather Annaba

    Today, 21 July, Saturday

    Time Temperature Precipitation Wind Pressure Humidity
    00:00 +34°C° 0.1 mm 3 mps 757 mmHg 38%
    01:00 +34°C° 0.1 mm 4 mps 757 mmHg 36%
    02:00 +34°C° 0 mm 3 mps 756 mmHg 36%
    03:00 +34°C° 0 mm 3 mps 756 mmHg 36%
    04:00 +34°C° 0 mm 3 mps 756 mmHg 36%
    05:00 +34°C° 0 mm 4 mps 756 mmHg 39%
    06:00 +34°C° 0 mm 4 mps 756 mmHg 42%
    07:00 +35°C° 0 mm 4 mps 756 mmHg 45%
    08:00 +36°C° 0 mm 5 mps 756 mmHg 41%
    09:00 +39°C° 0 mm 5 mps 757 mmHg 38%
    10:00 +40°C° 0 mm 5 mps 757 mmHg 34%
    11:00 +41°C° 0 mm 5 mps 757 mmHg 35%
    12:00 +41°C° 0 mm 6 mps 757 mmHg 35%
    13:00 +42°C° 0 mm 6 mps 757 mmHg 35%
    14:00 +41°C° 0 mm 6 mps 757 mmHg 38%
    15:00 +40°C° 0 mm 5 mps 757 mmHg 40%
    16:00 +38°C° 0 mm 4 mps 757 mmHg 42%
    17:00 +37°C° 0 mm 4 mps 757 mmHg 44%
    18:00 +35°C° 0 mm 3 mps 757 mmHg 46%
    19:00 +34°C° 0 mm 3 mps 758 mmHg 48%
    20:00 +32°C° 0 mm 2 mps 758 mmHg 51%
    21:00 +31°C° 0 mm 1 mps 759 mmHg 54%
    22:00 +30°C° 0 mm 1 mps 759 mmHg 57%
    23:00 +30°C° 0 mm 1 mps 759 mmHg 56%

    Tomorrow, 22 July, Sunday

    Time Temperature Precipitation Wind Pressure Humidity
    00:00 +30°C° 0 mm 1 mps 759 mmHg 55%
    01:00 +30°C° 0 mm 1 mps 759 mmHg 54%
    02:00 +30°C° 0 mm 2 mps 758 mmHg 55%
    03:00 +30°C° 0 mm 2 mps 758 mmHg 55%
    04:00 +30°C° 0 mm 2 mps 758 mmHg 56%
    05:00 +30°C° 0 mm 2 mps 758 mmHg 58%
    06:00 +29°C° 0 mm 2 mps 758 mmHg 61%
    07:00 +29°C° 0 mm 1 mps 757 mmHg 63%
    08:00 +31°C° 0 mm 2 mps 757 mmHg 55%
    09:00 +35°C° 0 mm 2 mps 757 mmHg 47%
    10:00 +37°C° 0 mm 2 mps 757 mmHg 39%
    11:00 +37°C° 0 mm 3 mps 757 mmHg 41%
    12:00 +37°C° 0 mm 3 mps 757 mmHg 42%
    13:00 +37°C° 0 mm 4 mps 757 mmHg 44%
    14:00 +37°C° 0 mm 3 mps 757 mmHg 42%
    15:00 +38°C° 0 mm 3 mps 757 mmHg 39%
    16:00 +38°C° 0 mm 3 mps 756 mmHg 37%
    17:00 +37°C° 0 mm 4 mps 757 mmHg 41%
    18:00 +36°C° 0 mm 4 mps 757 mmHg 45%
    19:00 +35°C° 0 mm 5 mps 758 mmHg 49%
    20:00 +33°C° 0 mm 4 mps 758 mmHg 54%
    21:00 +31°C° 0 mm 2 mps 759 mmHg 59%
    22:00 +30°C° 0 mm 1 mps 759 mmHg 64%
    23:00 +30°C° 0 mm 1 mps 759 mmHg 64%

    Day after tomorrow, 23 July, Monday

    Time Temperature Precipitation Wind Pressure Humidity
    00:00 +30°C° 0 mm 2 mps 759 mmHg 64%
    01:00 +30°C° 0 mm 2 mps 759 mmHg 64%
    02:00 +29°C° 0 mm 2 mps 759 mmHg 70%
    03:00 +28°C° 0 mm 2 mps 758 mmHg 76%
    04:00 +27°C° 0 mm 2 mps 758 mmHg 82%
    05:00 +27°C° 0 mm 2 mps 758 mmHg 81%
    06:00 +27°C° 0 mm 2 mps 759 mmHg 80%
    07:00 +27°C° 0 mm 2 mps 759 mmHg 79%
    08:00 +29°C° 0 mm 2 mps 759 mmHg 69%
    09:00 +30°C° 0 mm 3 mps 759 mmHg 59%
    10:00 +33°C° 0 mm 3 mps 759 mmHg 50%
    11:00 +34°C° 0 mm 4 mps 759 mmHg 46%
    12:00 +34°C° 0 mm 4 mps 759 mmHg 43%
    13:00 +35°C° 0 mm 4 mps 759 mmHg 40%
    14:00 +35°C° 0 mm 4 mps 759 mmHg 40%
    15:00 +35°C° 0 mm 5 mps 759 mmHg 41%
    16:00 +35°C° 0 mm 5 mps 759 mmHg 41%
    17:00 +34°C° 0 mm 4 mps 759 mmHg 45%
    18:00 +32°C° 0 mm 4 mps 759 mmHg 48%
    19:00 +30°C° 0 mm 3 mps 759 mmHg 52%
    20:00 +29°C° 0 mm 2 mps 759 mmHg 58%
    21:00 +28°C° 0 mm 2 mps 759 mmHg 64%
    22:00 +26°C° 0 mm 1 mps 760 mmHg 71%
    23:00 +26°C° 0 mm 1 mps 759 mmHg 71%

    24 July, Tuesday

    Time Temperature Precipitation Wind Pressure Humidity
    00:00 +26°C° 0 mm 1 mps 759 mmHg 71%
    01:00 +25°C° 0 mm 2 mps 759 mmHg 71%
    02:00 +25°C° 0 mm 1 mps 759 mmHg 69%
    03:00 +25°C° 0 mm 1 mps 758 mmHg 68%
    04:00 +24°C° 0 mm 1 mps 758 mmHg 66%
    05:00 +25°C° 0 mm 1 mps 758 mmHg 61%
    06:00 +26°C° 0 mm 1 mps 758 mmHg 56%
    07:00 +27°C° 0 mm 1 mps 758 mmHg 51%
    08:00 +29°C° 0 mm 1 mps 758 mmHg 45%
    09:00 +31°C° 0 mm 1 mps 758 mmHg 38%
    10:00 +34°C° 0 mm 1 mps 759 mmHg 31%
    11:00 +36°C° 0 mm 2 mps 758 mmHg 29%
    12:00 +37°C° 0 mm 3 mps 758 mmHg 27%
    13:00 +38°C° 0 mm 4 mps 758 mmHg 25%
    14:00 +38°C° 0 mm 4 mps 758 mmHg 25%
    15:00 +37°C° 0 mm 4 mps 758 mmHg 26%
    16:00 +37°C° 0 mm 4 mps 757 mmHg 26%
    17:00 +36°C° 0 mm 3 mps 757 mmHg 29%
    18:00 +35°C° 0 mm 3 mps 758 mmHg 33%
    19:00 +34°C° 0 mm 2 mps 758 mmHg 36%
    20:00 +31°C° 0 mm 2 mps 758 mmHg 41%
    21:00 +30°C° 0 mm 2 mps 758 mmHg 45%
    22:00 +28°C° 0 mm 1 mps 759 mmHg 50%
    23:00 +28°C° 0 mm 1 mps 758 mmHg 49%

    25 July, Wednesday

    Time Temperature Precipitation Wind Pressure Humidity
    00:00 +28°C° 0 mm 2 mps 758 mmHg 47%
    01:00 +28°C° 0 mm 2 mps 758 mmHg 45%
    02:00 +28°C° 0 mm 2 mps 758 mmHg 44%
    03:00 +28°C° 0 mm 1 mps 757 mmHg 42%
    04:00 +28°C° 0 mm 1 mps 757 mmHg 41%
    05:00 +29°C° 0 mm 2 mps 757 mmHg 38%
    06:00 +30°C° 0 mm 2 mps 758 mmHg 36%
    07:00 +30°C° 0 mm 2 mps 758 mmHg 34%
    08:00 +34°C° 0 mm 2 mps 758 mmHg 30%
    09:00 +36°C° 0 mm 2 mps 758 mmHg 26%
    10:00 +39°C° 0 mm 2 mps 758 mmHg 23%
    11:00 +39°C° 0 mm 3 mps 758 mmHg 22%
    12:00 +40°C° 0 mm 3 mps 757 mmHg 21%
    13:00 +42°C° 0 mm 4 mps 757 mmHg 21%
    14:00 +41°C° 0 mm 4 mps 757 mmHg 23%
    15:00 +41°C° 0 mm 4 mps 757 mmHg 24%
    16:00 +40°C° 0 mm 4 mps 757 mmHg 26%
    17:00 +38°C° 0 mm 4 mps 757 mmHg 29%
    18:00 +37°C° 0 mm 3 mps 757 mmHg 32%
    19:00 +36°C° 0 mm 3 mps 757 mmHg 35%
    20:00 +34°C° 0 mm 2 mps 757 mmHg 40%
    21:00 +31°C° 0 mm 1 mps 758 mmHg 44%
    22:00 +30°C° 0 mm 1 mps 758 mmHg 49%
    23:00 +29°C° 0 mm 1 mps 758 mmHg 49%

    26 July, Thursday

    Time Temperature Precipitation Wind Pressure Humidity
    00:00 +29°C° 0 mm 1 mps 758 mmHg 49%
    01:00 +26°C° 0 mm 0 mps 758 mmHg 49%
    02:00 +26°C° 0 mm 0 mps 758 mmHg 49%
    03:00 +28°C° 0 mm 1 mps 757 mmHg 49%
    04:00 +28°C° 0 mm 1 mps 757 mmHg 49%
    05:00 +28°C° 0 mm 1 mps 757 mmHg 47%
    06:00 +29°C° 0 mm 1 mps 758 mmHg 45%
    07:00 +30°C° 0 mm 1 mps 758 mmHg 42%
    08:00 +32°C° 0 mm 1 mps 758 mmHg 38%
    09:00 +34°C° 0 mm 1 mps 758 mmHg 33%
    10:00 +37°C° 0 mm 2 mps 758 mmHg 28%
    11:00 +38°C° 0 mm 2 mps 758 mmHg 27%
    12:00 +39°C° 0 mm 3 mps 758 mmHg 25%
    13:00 +40°C° 0 mm 3 mps 757 mmHg 23%
    14:00 +41°C° 0 mm 4 mps 757 mmHg 24%
    15:00 +41°C° 0 mm 4 mps 757 mmHg 25%
    16:00 +40°C° 0 mm 4 mps 757 mmHg 26%
    17:00 +38°C° 0 mm 4 mps 757 mmHg 30%
    18:00 +36°C° 0 mm 3 mps 757 mmHg 34%
    19:00 +35°C° 0 mm 2 mps 757 mmHg 37%
    20:00 +32°C° 0 mm 2 mps 758 mmHg 43%
    21:00 +30°C° 0 mm 1 mps 758 mmHg 48%
    22:00 +27°C° 0 mm 0 mps 759 mmHg 53%
    23:00 +26°C° 0 mm 0 mps 758 mmHg 53%
    Show more